Regional Weather Roundup
Issued by NWS

Home | Current Version | Previous Version | Graphics & Text | Print | Product List | Glossary On
Versions: 1 2 3 4 5 6 7 8 9 10 11 12 13 14 15 16 17 18 19 20 21 22 23 24 25 26 27 28 29 30 31 32 33 34 35 36 37 38 39 40 41 42 43 44 45 46 47 48 49 50
000
ASUS43 KOAX 211910
RWRNE

WEATHER ROUNDUP FOR NEBRASKA
NATIONAL WEATHER SERVICE OMAHA NE
100 PM CST SUN DEC 21 2014

NOTES: SATELLITE DATA IS BEING USED TO AUGMENT CLOUD COVER ABOVE
       12000 FEET.
       "FAIR" INDICATES FEW OR NO CLOUDS BELOW 12,000 FEET WITH NO
       SIGNIFICANT WEATHER AND/OR OBSTRUCTIONS TO VISIBILITY.

  * THESE STATIONS DO NOT REPORT WEATHER SUCH AS RAIN...SNOW OR FOG.

NEZ001>004-019>022-054>056-212000-
NEBRASKA PANHANDLE

CITY           SKY/WX    TMP DP  RH WIND       PRES   REMARKS
SCOTTSBLUFF    CLOUDY    45  30  55 W16G26    29.51F
ALLIANCE       CLOUDY    40  27  59 SW15      29.50F WCI  32
CHADRON        CLOUDY    43  32  65 SW5       29.44F
KIMBALL        CLOUDY    44  23  43 SW14      29.54F
SIDNEY         CLOUDY    39  26  59 SW14      29.56F WCI  31
$$

NEZ057>060-069>072-079>082-212000-
SOUTHWEST NEBRASKA

CITY           SKY/WX    TMP DP  RH WIND       PRES   REMARKS
NORTH PLATTE   CLOUDY    42  32  67 S8        29.58F
IMPERIAL       CLOUDY    44  28  53 SW10      29.60F
LEXINGTON      MOSUNNY   38  33  82 S13G18    29.63F HAZE    WCI  30
MCCOOK         SUNNY     47  33  58 S15       29.61F
OGALLALA       CLOUDY    33  28  82 W8        29.58F WCI  26
$$

NEZ005>010-023>029-035>040-094-212000-
NORTH CENTRAL NEBRASKA

CITY           SKY/WX    TMP DP  RH WIND       PRES   REMARKS
VALENTINE      SUNNY     43  29  57 S13       29.50F
AINSWORTH      SUNNY     40  30  67 S12       29.52F WCI  33
BROKEN BOW     MOSUNNY   44  34  67 S13G26    29.59F
O`NEILL        SUNNY     39  34  82 S14       29.57F WCI  30
THEDFORD       CLOUDY    45  32  60 S12       29.54F
$$

NEZ041-046>049-061>064-073>077-083>087-212000-
SOUTH CENTRAL NEBRASKA

CITY           SKY/WX    TMP DP  RH WIND       PRES   REMARKS
GRAND ISLAND   CLOUDY    37  35  92 S16       29.70F FOG     WCI  28
AURORA         CLOUDY    38  38 100 S16G22    29.70F FOG     WCI  29
HASTINGS       CLOUDY    39  37  92 S15G26    29.69F FOG     WCI  31
HEBRON         CLOUDY    41  38  91 S17       29.76F FOG
HOLDREGE       FOG       36  35  96 SW14      29.67F VSB 3/4 WCI  27
KEARNEY *      CLOUDY    36  34  93 S20       29.68F VSB 3/4 WCI  25
YORK           CLOUDY    39  39 100 S20       29.72F FOG     WCI  30
$$

NEZ011>018-030>034-042>045-212000-
NORTHEAST NEBRASKA

CITY           SKY/WX    TMP DP  RH WIND       PRES   REMARKS
NORFOLK        CLOUDY    39  36  89 S18G28    29.67F FOG     WCI  30
ALBION         CLOUDY    36  34  92 S14G20    29.67F FOG     WCI  27
BLAIR          CLOUDY    42  39  88 S22       29.75F FOG
COLUMBUS *     CLOUDY    39  36  87 S18G26    29.73F WCI  30
FREMONT        CLOUDY    42  39  91 S16G22    29.74F FOG
TEKAMAH        CLOUDY    42  38  85 S20       29.75F
WAYNE          CLOUDY    40  37  91 S17G23    29.68F WCI  31
$$

NEZ050>053-065>068-078-088>093-212000-
SOUTHEAST NEBRASKA

CITY           SKY/WX    TMP DP  RH WIND       PRES   REMARKS
LINCOLN        CLOUDY    42  38  85 S17G28    29.76F
OMAHA EPPLEY   CLOUDY    42  38  85 S21       29.78F
BEATRICE       CLOUDY    40  38  91 S13G18    29.78F WCI  33
FALLS CITY     CLOUDY    42  38  85 S16G22    29.84F
NEBRASKA CITY  CLOUDY    40  40  99 S16       29.80F FOG     WCI  32
PLATTSMOUTH    CLOUDY    40  38  91 S15       29.79F FOG     WCI  32
$$

NEZ044-045-051>053-067-212000-
OMAHA AREA

CITY           SKY/WX    TMP DP  RH WIND       PRES   REMARKS
OMAHA EPPLEY   CLOUDY    42  38  85 S21       29.78F
BLAIR          CLOUDY    42  39  88 S22       29.75F FOG
FREMONT        CLOUDY    42  39  91 S16G22    29.74F FOG
MILLARD        CLOUDY    42  38  86 S13G18    29.78F
OFFUTT AFB     CLOUDY    42  38  89 S13       29.78F
PLATTSMOUTH    CLOUDY    40  38  91 S15       29.79F FOG     WCI  32
WAHOO          CLOUDY    41  37  87 S22       29.75F FOG
$$



USA.gov is the U.S. government's official web portal to all federal, state and local government web resources and services.